Location: Stuttgart
(48.8069°N, 9.1544°E)
Time: 08:41:53
(UTC+01:00)

ISS - Pass Details

Date: 15 November 2017
Orbit: 402 x 407 km, 51.6° (Epoch: 21 November)

Event Time Altitude Azimuth Distance (km) Brightness Sun altitude
Exits shadow 06:28:16 14° 259° (W) 1,249 -1.9 -10.6°
Maximum altitude 06:30:00 20° 220° (SW) 998 -2.1 -10.3°
Drops below altitude 10° 06:32:28 10° 170° (S) 1,448 -0.7 -9.9°
Sets 06:34:52 0° 153° (SSE) 2,303 0.7 -9.6°
